Medicine Lodge, KS

9:49 AM CST on December 16, 2017 (GMT -0600)
Medicine Lodge

Weather History for KP28 - November, 2013

Change the Weather History Date:

Thursday, November 21, 2013

  Actual Average Record
Temperature  
Mean Temperature 38 °F 43 °F  
Max Temperature 52 °F 55 °F 78 °F (1955)
Min Temperature 24 °F 30 °F 7 °F (1898)
Degree Days  
Heating Degree Days 27 22  
Month to date heating degree days 352 367  
Since 1 July heating degree days 639 636  
Cooling Degree Days 0 0  
Month to date cooling degree days 0 0  
Year to date cooling degree days 1786 1769  
Moisture  
Dew Point 32 °F    
Average Humidity 87    
Maximum Humidity 100    
Minimum Humidity 74    
Precipitation  
Precipitation 0.24 in 0.02 in 2.21 in (1899)
Month to date precipitation 0.55 0.73  
Year to date precipitation 25.11 26.02  
Snow  
Snow 0.00 in 0.00 in - ()
Month to date snowfall 0.0 0.0  
Since 1 July snowfall 0.0 0.0  
Since 1 September snowfall 0.0 0.0  
Snow Depth 0.00 in    
Sea Level Pressure  
Sea Level Pressure 30.19 in    
Wind  
Wind Speed 19 mph (NNE)    
Max Wind Speed 30 mph    
Max Gust Speed 40 mph    
T = Trace of Precipitation, MM = Missing Value Source: NWS Daily Summary

Daily Weather History Graph

Daily Weather History Graph

Search for Another Location

Airport or City:

Trip Planner

Search our weather history database for the weather conditions in past years. The results will help you decide how hot, cold, wet, or windy it might be!

Date:

Astronomy

Nov. 21, 2013 Rise Set
Actual Time 7:20 AM CST 5:20 PM CST
Civil Twilight 6:51 AM CST 5:48 PM CST
Nautical Twilight 6:20 AM CST 6:20 PM CST
Astronomical Twilight 5:48 AM CST 6:51 PM CST
Moon 8:57 PM CST (11/21) 10:27 AM CST (11/21)
Length of Visible Light 10h 56m
Length of Day
10h 00m
Waning Gibbous, 85% of the Moon is Illuminated
Nov 21
Waning Gibbous
Nov 25
Last Quarter
Dec 2
New
Dec 9
First Quarter
Dec 17
Full

Hourly Weather History & Observations

Time (CST) Temp. Windchill Dew Point Humidity Pressure Visibility Wind Dir Wind Speed Gust Speed Precip Events Conditions
12:56 AM 51.1 °F - 46.0 °F 83% 29.87 in - ESE 3.5 mph - N/A   Unknown
1:56 AM 51.1 °F - 46.9 °F 86% 29.89 in - SE 6.9 mph - N/A   Unknown
2:56 AM 50.0 °F - 50.0 °F 100% 29.88 in - ESE 4.6 mph - 0.02 in   Unknown
3:56 AM 51.1 °F - 50.0 °F 96% 29.88 in - ESE 8.1 mph - N/A   Unknown
4:56 AM 51.1 °F - 50.0 °F 96% 29.89 in - East 4.6 mph - N/A   Unknown
5:56 AM 51.1 °F - 50.0 °F 96% 29.92 in - East 5.8 mph - N/A   Unknown
6:56 AM 44.1 °F 35.7 °F 43.0 °F 96% 29.98 in - North 20.7 mph 29.9 mph 0.22 in   Unknown
7:56 AM 39.0 °F 28.0 °F 37.0 °F 93% 30.02 in - North 25.3 mph 32.2 mph N/A   Unknown
8:56 AM 36.0 °F 24.4 °F 34.0 °F 93% 30.08 in - NNE 23.0 mph 33.4 mph N/A   Unknown
9:56 AM 35.1 °F 21.8 °F 32.0 °F 89% 30.12 in - North 29.9 mph 36.8 mph N/A   Unknown
10:56 AM 33.1 °F 19.1 °F 30.0 °F 89% 30.16 in - North 29.9 mph 38.0 mph N/A   Unknown
11:56 AM 30.9 °F 18.4 °F 28.9 °F 92% 30.19 in - North 20.7 mph 32.2 mph N/A   Unknown
12:56 PM 30.0 °F 16.6 °F 28.0 °F 92% 30.19 in - North 23.0 mph 34.5 mph N/A   Unknown
1:56 PM 28.9 °F 15.1 °F 27.0 °F 92% 30.21 in - North 23.0 mph 32.2 mph N/A   Unknown
2:56 PM 28.9 °F 15.1 °F 26.1 °F 89% 30.25 in - NNW 23.0 mph 31.1 mph N/A   Unknown
3:56 PM 28.0 °F 14.9 °F 24.1 °F 85% 30.31 in - NNW 19.6 mph 33.4 mph N/A   Unknown
4:56 PM 27.0 °F 12.2 °F 21.9 °F 81% 30.33 in - North 24.2 mph 35.7 mph N/A   Unknown
5:56 PM 27.0 °F 12.8 °F 21.0 °F 78% 30.37 in - North 21.9 mph 31.1 mph N/A   Unknown
6:56 PM 27.0 °F 13.2 °F 21.9 °F 81% 30.41 in - North 20.7 mph 28.8 mph N/A   Unknown
7:56 PM 27.0 °F 12.2 °F 21.0 °F 78% 30.45 in - North 24.2 mph 31.1 mph N/A   Unknown
8:56 PM 26.1 °F 10.7 °F 19.0 °F 75% 30.48 in - North 25.3 mph 32.2 mph N/A   Unknown
9:56 PM 25.0 °F 10.2 °F 19.0 °F 78% 30.52 in - North 21.9 mph 34.5 mph N/A   Unknown
10:56 PM 24.1 °F 9.4 °F 17.1 °F 75% 30.55 in - North 20.7 mph 32.2 mph N/A   Unknown
11:56 PM 24.1 °F 8.3 °F 16.0 °F 71% 30.58 in - North 24.2 mph 35.7 mph N/A   Unknown